Home > Weather > Cedar Rapids > Past weeks

Flag for U.S.A. Weather for the Past 2 Weeks in Cedar Rapids, Iowa, U.S.A.

Now
17 °F

Light snow. Cloudy.


Feels Like: -1 °F
Forecast: 16 / 26 °F
Wind: 23 mph from Northwest

Location: Cedar Rapids Municipal Airport

Current Time: Feb 8, 2016 at 1:28:33 PM

Latest Report: Feb 8, 2016 at 12:52 PM


Visibility: 3 mi

Pressure: 29.88 "Hg

Humidity: 80%

Dew point: 12 °F

Location of Cedar RapidsLocation

Historic Weather in Cedar Rapids — Graph

°F

Cedar Rapids Temperature Yesterday

Maximum temperature yesterday: 42 °F (at 11:52 AM)
Minimum temperature yesterday: 31 °F (at 11:52 PM)
Average temperature yesterday: 36 °F

High & Low Weather Summary for the Past Weeks

 TemperatureHumidityPressure
High44 °F (Jan 30, 2:52 PM)100% (Jan 24, 7:52 PM)30.44 "Hg (Jan 24, 7:52 PM)
Low12 °F (Feb 4, 5:52 AM)65% (Feb 7, 11:52 AM)29.43 "Hg (Feb 3, 3:00 AM)
Average29 °F89%29.92 "Hg
* Reported Jan 24 11:52 AM — Feb 8 11:52 AM, Cedar Rapids, Weather by CustomWeather, © 2016

Note: Actual official high and low records may vary slightly from our data, if they occured in-between our weather recording intervals... More about our weather records

Advertising

Cedar Rapids Weather History for the Previous 24 Hours

 ConditionsComfort  
Time TempWeatherWind HumidityBarometerVisibility
11:52 AM
Mon, Feb 8
16 °FLight snow. Overcast.25 mph80%29.88 "Hg2 mi
10:52 AM17 °FLight snow. Mostly cloudy.22 mph80%29.87 "Hg5 mi
9:52 AM17 °FLight snow. Cloudy.21 mph76%29.86 "Hg6 mi
8:52 AM16 °FLight snow. Mostly cloudy.24 mph80%29.84 "Hg7 mi
7:52 AM16 °FLight snow. Ice fog.24 mph84%29.82 "Hg4 mi
6:52 AM17 °FLight snow. Mostly cloudy.21 mph76%29.81 "Hg7 mi
5:52 AM17 °FLight snow. Ice fog.23 mph83%29.79 "Hg6 mi
4:52 AM18 °FLight snow. Mostly cloudy.24 mph80%29.78 "Hg9 mi
4:03 AM19 °FLight snow. Ice fog.24 mph85%29.75 "Hg5 mi
3:52 AM19 °FLight snow. Ice fog.29 mph85%29.78 "Hg2 mi
2:52 AM20 °FLight snow. Ice fog.26 mph85%29.77 "Hg2 mi
1:52 AM24 °FOvercast.25 mph77%29.77 "Hg10 mi
12:52 AM29 °FOvercast.24 mph82%29.76 "Hg10 mi
12:03 AM31 °FMostly cloudy.18 mph82%29.74 "Hg10 mi
11:52 PM
Sun, Feb 7
31 °FMostly cloudy.20 mph85%29.76 "Hg10 mi
10:52 PM33 °FMostly cloudy.21 mph92%29.75 "Hg10 mi
9:52 PM33 °FLight snow. Fog.14 mph100%29.76 "Hg6 mi
9:04 PM33 °FLight snow. Fog.15 mph100%29.75 "Hg5 mi
7:52 PM33 °FPassing clouds.14 mph92%29.79 "Hg10 mi
6:52 PM34 °FPassing clouds.13 mph82%29.81 "Hg10 mi
5:52 PM34 °FClear.12 mph82%29.81 "Hg10 mi
4:52 PM37 °FSunny.14 mph79%29.81 "Hg10 mi
3:52 PM40 °FSunny.21 mph73%29.80 "Hg10 mi
2:52 PM41 °FPartly sunny.23 mph67%29.80 "Hg10 mi
1:52 PM42 °FSunny.22 mph68%29.80 "Hg10 mi
Weather by CustomWeather, © 2016

See weather overviewHow to use our weather pages